Home   Weather   Malakal   Past weeks

Flag for South Sudan Past Weather in Malakal, South Sudan — Yesterday and Last 2 Weeks

Now
72 °F

Smoke.


Feels Like: 76 °F
Forecast: 74 / 105 °F
Wind: 12 mph from South

Location: Addis Ababa Airport

Current Time: Jan 21, 2017 at 2:18:57 pm

Latest Report: Jan 21, 2017 at 1:00 pm


Visibility: N/A

Pressure: 30.30 "Hg

Humidity: 31%

Dew Point: 39 °F

Location of MalakalLocation

Past Weather in Malakal — Graph

°F

Malakal Temperature Yesterday

Maximum temperature yesterday: 73 °F (at 1:00 pm)
Minimum temperature yesterday: 46 °F (at 6:00 am)
Average temperature yesterday: 62 °F

High & Low Weather Summary for the Past Weeks

 TemperatureHumidityPressure
High77 °F (Jan 18, 3:00 pm)94% (Jan 8, 11:00 pm)30.39 "Hg (Jan 8, 11:00 pm)
Low39 °F (Jan 7, 4:00 am)5% (Jan 8, 11:00 am)30.21 "Hg (Jan 13, 4:00 pm)
Average59 °F29%30.32 "Hg
* Reported Jan 6 1:00 pm — Jan 21 1:00 pm, Malakal, Weather by CustomWeather, © 2017

Note: Actual official high and low records may vary slightly from our data, if they occured in-between our weather recording intervals... More about our weather records

Advertising

Malakal Weather History for the Previous 24 Hours

Scroll right to see more
 ConditionsComfort  
Time TempWeatherWind HumidityBarometerVisibility
1:00 pm
Sat, Jan 21
72 °FSmoke.12 mph31%30.30 "HgN/A
12:00 pm70 °FSmoke.9 mph31%30.36 "HgN/A
11:00 am68 °FSmoke.9 mph30%30.36 "HgN/A
10:00 am64 °FSmoke.9 mph34%30.39 "HgN/A
9:00 am61 °FSmoke.5 mph31%30.36 "HgN/A
8:00 am54 °FSmoke.2 mph47%30.33 "HgN/A
7:00 am48 °FSmoke.5 mph58%30.30 "HgN/A
6:00 am48 °FSmoke.6 mph54%30.30 "HgN/A
4:00 am50 °FSmoke.6 mph50%30.27 "HgN/A
3:00 am50 °FSmoke.7 mph54%30.27 "HgN/A
2:00 am50 °FSmoke.5 mph54%30.30 "HgN/A
12:00 am54 °FSmoke.5 mph51%30.33 "HgN/A
10:00 pm
Fri, Jan 20
57 °FSmoke.7 mph41%30.36 "HgN/A
9:00 pm61 °FSmoke.9 mph39%30.33 "HgN/A
8:00 pm61 °FSmoke.12 mph39%30.33 "HgN/A
6:00 pm70 °FThunderstorms. Cloudy.6 mph29%30.24 "HgN/A
4:00 pm73 °FThunderstorms. Cloudy.7 mph25%30.24 "HgN/A
3:00 pm73 °FThunderstorms. Cloudy.5 mph23%30.24 "HgN/A
2:00 pm73 °FSmoke.9 mph23%30.27 "HgN/A
Weather by CustomWeather, © 2017

See weather overviewHow to use our weather pages